COSMOS 2251 DEB, 34878

Orbit data source: Space-Track

COSMOS 2251 DEB, 34878 is space debris in LEO originally from a launch on Wed, 16 Jun 1993 UTC launched from the Plesetsk Missile And Space Complex (PKMTR). The debris from Iridium 33, an American commercial communications satellite, has been tracked extensively since its accidental collision with the defunct Russian satellite Cosmos 2251 in 2009. This event, occurring at high speed in low Earth orbit (LEO), generated thousands of pieces of space debris, significantly increasing the risk of further collisions. The Iridium 33 debris cloud has impacted space traffic management and orbital debris mitigation strategies, making it a subject of ongoing study in space situational awareness.

Loading next visibility...
Identifier
34878, 1993-036ACR
Orbit
LEO
Country
Flag of CISCIS
Related business
Manufacturer
Unknown
Mission
Spacecraft
Bus & Motor
Unknown
Mass
Unknown
Launch date (UTC)
1993-06-16 (33 years ago)
Launch vehicle
Unknown
Launch site
Plesetsk Missile And Space Complex (PKMTR)
Object type
Payload
Rocket body
Debris
Shape & HBR
Unknown shape, 0.1 m
Radar Cross Section
Small (<0.1 m²)

Expand to show TLE details & history
Last TLE update: 6 days ago

TLE from 6 days ago
0 COSMOS 2251 DEB
1 34878U 93036ACR 26032.21532590  .00000503  00000-0  51152-3 0  9996
2 34878  73.9683 327.2319 0436303 301.1356 124.4311 13.44279344819514
Epoch: 2026-02-01T05:10Z
TLE epoch observation values (Epoch: 2026-02-01T05:10:04.157Z)
Latitude
64.33237°
Longitude
154.7953°
Altitude
1,297.766 km
Speed
7.119 km/s
True Right ascension
00h 14m 57s
True Declination
64° 12' 26"
Sunlit
Object was in daylight at epoch
Visualization orbit readout
Latitude
Unknown
Longitude
Unknown
Altitude
Unknown
Speed
Unknown
Apparent Right ascension
Unknown
Apparent Declination
Unknown
Sunlit
N/A
Visualization observer readout
Local Sidereal Time
13:58:11
Azimuth
Unknown
Elevation
Unknown
Doppler factor
Unknown
Orbital elements
Apogee altitude
1,416.992 km
Perigee altitude
765.221 km
Semi-major axis
7,469.243 km
Eccentricity
0.04363
Inclination
73.9683°
RAAN
327.2319°
Arg. of periapsis
301.1356°
True anomaly
128.42813°
Mean anomaly
124.4311°
Eccentric anomaly
126.44211°
Mean motion
3.36224 °/min
Orbital period
107.07 mins
BSTAR
0.00051152
Loading maneuver chart data...
Computing Atmospheric mass density...

Documentation

Showing up to 5 results
|